星链-31618 (STARLINK-31618 )

导读

STARLINK-31618是美国太空探索技术公司SpaceX于2024年4月17日发射的星链(Starlink)卫星,星链项目旨在全球范围内提供高速低延迟宽带互联网服务。该卫星运行在近地轨道,属于SpaceX大规模卫星互联网组网计划的组成部分,将为偏远地区、缺乏传统基础设施区域提供互联网接入支持,助力全球网络覆盖。

基本信息
目录编号:
59528
目录名称:
STARLINK-31618
国际标识:
2024-073T
轨道中心:
EARTH
卫星名称:
星链-31618
卫星全名:
星链-31618 (STARLINK-31618 )
卫星状态:
已陨落 最后检测时间 2025-12-03
发射日期:
2024-04-17 UTC
国别 :
美国 (US)
星等 :
--
轨道信息
数据来源 国际轨道数据
星历时间: 2025-12-03T03:53:41+0800
轨道信息已过期193天
半长轴: 6588.943km
偏心率: 0.0015761
轨道倾角: 42.970°
近地点辐角 334.558°
升交点赤经 112.319°
平近点角 25.453°
近地点: 200.423km
远地点: 221.193km
周期: 88.712分钟
每日圈数: 16.232266
详细信息
固有亮度:
5
最大亮度:
1.5
卫星平台:
Starlink v2.0 mini
覆盖范围:
全球
运营商:
太空探索技术公司
运营商所在国:
美国
制造商(研发单位):
太空探索技术公司
制造商所在国:
美国
使用方式:
暂无
卫星简介
星链(Starlink)计划是由太空探索技术公司(SpaceX)提出的一个巨型低轨卫星互联网星座项目,计划在2019年至2024年间在太空搭建由约1.2万颗卫星组成的“星链”网络,其中1584颗将部署在地球上空550千米处的近地轨道,并从2020年开始工作。该卫星仍在工作。